Hourly Data Report for October 22, 2015

All times are specified in Local Standard Time (LST). Add 1 hour to adjust for Daylight Saving Time where and when it is observed.

KAMLOOPS A
BRITISH COLUMBIA

50°42'09.000" N
120°26'55.000" W
345.30 m
1163781
71887
YKA

Download Data

Hourly Data (October 2015)
Hourly Data Report for October 22, 2015
Temp Definition
°C
Dew Point Temp Definition
°C
Rel Hum Definition
%
Wind Dir Definition
10's deg

Wind Spd Definition
km/h
Visibility Definition
km
Stn Press Definition
kPa
Hmdx Definition


Wind Chill Definition


Weather Definition


TIME
00:00 Legend Double Dagger 3.5 2.3 92 6 6 64.4 97.77     LegendNANA
01:00 Legend Double Dagger 2.5 1.5 93 36 3 64.4 97.85     Clear
02:00 Legend Double Dagger 2.1 1.1 93 3 6 64.4 97.92     LegendNANA
03:00 Legend Double Dagger 1.7 0.8 94 8 8 64.4 97.95     LegendNANA
04:00 Legend Double Dagger 0.8 -0.2 93 3 3 64.4 97.99     Clear
05:00 Legend Double Dagger 1.6 1.0 96 9 5 64.4 98.03     LegendNANA
06:00 Legend Double Dagger 1.6 1.0 96 36 2 64.4 98.07     LegendNANA
07:00 Legend Double Dagger -0.1 -1.1 93 36 3 64.4 98.13   -1 Mainly Clear
08:00 Legend Double Dagger 3.5 2.5 93 7 3 64.4 98.18     LegendNANA
09:00 Legend Double Dagger 6.4 3.4 81 30 5 64.4 98.20     LegendNANA
10:00 Legend Double Dagger 8.4 3.7 72 26 8 64.4 98.15     Clear
11:00 Legend Double Dagger 10.0 3.5 64 23 8 64.4 98.13     LegendNANA
12:00 Legend Double Dagger 11.4 3.2 57 19 6 64.4 98.08     LegendNANA
13:00 Legend Double Dagger 13.2 3.1 50 26 6 64.4 98.02     Mainly Clear
14:00 Legend Double Dagger 14.4 3.0 46 18 6 64.4 97.97     LegendNANA
15:00 Legend Double Dagger 15.3 2.2 41 21 7 64.4 97.93     LegendNANA
16:00 Legend Double Dagger 14.1 3.9 50 23 4 64.4 97.91     Mainly Clear
17:00 Legend Double Dagger 8.9 0.9 57 26 12 64.4 97.94     LegendNANA
18:00 Legend Double Dagger 8.8 1.5 60 30 10 64.4 97.98     LegendNANA
19:00 Legend Double Dagger 7.1 1.0 65 26 4 64.4 98.04     Mainly Clear
20:00 Legend Double Dagger 6.0 0.1 66 36 2 64.4 98.07     LegendNANA
21:00 Legend Double Dagger 5.1 -0.3 68 35 5 64.4 98.12     LegendNANA
22:00 Legend Double Dagger 4.9 0.1 71 36 3 64.4 98.15     Mainly Clear
23:00 Legend Double Dagger 4.4 0.9 78 4 4 64.4 98.18     LegendNANA

Notes on Data Quality.

Legend

  • E = Estimated
  • M = Missing
  • NA = Not Available
  • ‡ = Partner data that is not subject to review by the National Climate Archives
Date modified: